878  
ASUS46 KLOX 180913  
RWRCA  
 
SOUTHERN CALIFORNIA WEATHER ROUNDUP  
NATIONAL WEATHER SERVICE OXNARD CALIFORNIA  
200 AM PDT MON JUN 18 2018  
 
NOTE: "FAIR" INDICATES FEW OR NO CLOUDS BELOW 12,000 FEET WITH NO  
SIGNIFICANT WEATHER AND/OR S TO VISIBILITY
.  
 
- STATIONS PRECEEDED BY AN ASTERISK (*) ARE NOT NWS OR FAA  
STATIONS AND ARE NOT SUBJECT TO NWS AND FAA QUALITY CONTROL.
 
 
CAZ041-042-087-181000-  
LA AND ORANGE COUNTY COASTAL AREAS  
 
 
CITY SKY/WX TMP DP RH WIND PRES REMARKS
 
L.A. DOWNTOWN CLOUDY 62 55 77 CALM 29.97F  
L.A. AIRPORT MOCLDY 62 54 74 W9 29.98F  
LONG BEACH CLOUDY 63 54 72 NW7 29.97F  
 
CITY SKY/WX TMP DP RH WIND PRES REMARKS
 
AVALON N/A 63 N/A N/A NW2 N/A  
FULLERTON CLOUDY 64 54 69 NW5 29.97F  
*GETTY CENTER N/A 55 50 82 CALM N/A  
HAWTHORNE CLOUDY 62 55 77 W6 29.98F  
*LEO CARRILLO N/A 57 52 83 N3 N/A  
*REDONDO BEACH N/A 61 54 78 W2 29.96F  
SANTA ANA CLOUDY 64 54 69 CALM 29.97F  
STA MONICA APT CLOUDY 61 54 77 W3 29.98F  
*UCLA N/A 59 52 77 CALM 29.95F  
 

 
 
CAZ547-548-048-181000-  
LA COUNTY VALLEYS AND INLAND EMPIRE  
 
 
CITY SKY/WX TMP DP RH WIND PRES REMARKS
 
BURBANK CLOUDY 60 52 74 S5 29.97S  
VAN NUYS CLOUDY 60 52 74 W3 29.97F  
 
CITY SKY/WX TMP DP RH WIND PRES REMARKS
 
CORONA AIRPORT MOSUNNY 59 52 77 CALM 29.98F  
*CHATSWORTH N/A 58 52 79 CALM 29.96S  
CHINO PTCLDY 61 52 72 W6 29.98F  
*CLAREMONT N/A 57 52 82 W2 N/A  
MARCH AFB PTCLDY 59 50 72 NW6 29.99F  
*NORTHRIDGE N/A 59 50 72 W2 N/A  
ONTARIO MOCLDY 59 51 75 SW6 29.97F  
*PASADENA N/A 61 55 82 E2 N/A  
RIVERSIDE CLOUDY 60 52 74 W7 29.97F  
SAN BERNARDINO MOCLDY 61 51 70 SW5 29.98F  
*SAUGUS N/A 55 52 90 W5 N/A  
*WHITEMAN AP NOT AVBL  
*WOODLAND HILL N/A 57 50 77 SW2 N/A  
 

 
 
CAZ054-055-181000-  
LA AND SAN BERNARDINO COUNTY MOUNTAINS  
 
 
CITY SKY/WX TMP DP RH WIND PRES REMARKS
 
*ACTON N/A 51 49 93 S2 N/A  
*BIG BEAR AIRP SUNNY 36 7 30 CALM 30.07F  
*BIG PINES N/A 53 4 13 CALM N/A  
*CHILAO N/A 47 38 70 CALM N/A  
SANDBERG N/A 52 44 74 NW17 30.02F  
*WARM SPRINGS N/A 47 47 100 SW6 N/A  
 

 
 
CAZ028-029-059-060-099-181000-  
ANTELOPE VALLEY AND SURROUNDING AREAS  
 
 
CITY SKY/WX TMP DP RH WIND PRES REMARKS
 
LANCASTER CLEAR 56 47 71 SW14 29.93R  
PALMDALE CLEAR 56 45 66 SW14 29.94R  
*POPPY PARK N/A 54 46 75 SW13 N/A  
 
CITY SKY/WX TMP DP RH WIND PRES REMARKS
 
29 PALMS CLEAR 67 34 29 W16 29.92R  
BARSTOW/DAGGET CLEAR 65 43 44 NW13G24 29.88R  
BISHOP CLEAR 60 37 42 N12 29.97R  
CHINA LAKE CLEAR 63 40 42 E8 29.86R  
MOJAVE CLEAR 63 37 39 NW7 29.89R  
NEEDLES CLEAR 82 36 19 S3 29.77R  
 

 
 
CAZ039-040-181000-  
VENTURA AND SANTA BARBARA COUNTY COAST  
 
 
CITY SKY/WX TMP DP RH WIND PRES REMARKS
 
CAMARILLO CLOUDY 62 52 69 W5 29.98S  
NWS OXNARD N/A 60 53 76 SW3 29.97S  
OXNARD AIRPORT CLOUDY 61 54 77 W10 29.98F  
*POINT MUGU CLEAR 59 52 77 W7 29.99F  
SBA APT/GOLETA CLEAR 52 48 86 CALM 29.97F  
*SANTA BARBARA N/A 56 48 75 CALM 30.05S  
*VENTURA N/A 59 52 77 MISG N/A  
 

 
 
CAZ044-045-181000-  
VENTURA COUNTY VALLEYS  
 
 
CITY SKY/WX TMP DP RH WIND PRES REMARKS
 
*SIMI VALLEY N/A 56 52 85 CALM 29.94F  
*WESTLAKE VILL N/A 53 48 86 CALM 29.96S  
*FILLMORE N/A 58 53 84 CALM 30.02S  
 

 
 
CAZ053-181000-  
VENTURA COUNTY MOUNTAINS  
 
 
CITY SKY/WX TMP DP RH WIND PRES REMARKS
 
*LOCKWOOD VLY N/A 37 32 81 MISG N/A  
*FRAZIER MTN N/A 42 18 37 N10 29.75R  
*ROSE VALLEY N/A 45 43 93 MISG N/A  
 

 
 
CAZ034-035-036-181000-  
CENTRAL COAST AND SANTA YNEZ VALLEY  
 
 
CITY SKY/WX TMP DP RH WIND PRES REMARKS
 
SAN LUIS OBISP CLEAR 51 45 79 SE3 30.03S  
SANTA MARIA CLEAR 52 46 80 CALM 30.03S  
 
CITY SKY/WX TMP DP RH WIND PRES REMARKS
 
*CAL POLY SLO N/A 50 46 87 NE1 N/A  
*LOMPOC CLEAR 48 43 82 CALM N/A  
*PISMO BEACH N/A 53 32 45 NE1 30.02F  
*SANTA YNEZ FAIR 46 45 93 CALM 30.02S  
 

 
 
CAZ037-038-051-181000-  
SAN LUIS OBISPO COUNTY INTERIOR AND CUYAMA VALLEY  
 
 
CITY SKY/WX TMP DP RH WIND PRES REMARKS
 
PASO ROBLES CLEAR 51 44 77 CALM 30.02R  
 

 
 
CAZ032-033-061-181000-  
SOUTHERN DESERTS  
 
 
CITY SKY/WX TMP DP RH WIND PRES REMARKS
 
BLYTHE CLEAR 73 49 42 S7 29.78R  
IMPERIAL CLEAR 69 42 37 W8 29.77R  
PALM SPRINGS CLEAR 70 46 42 NW9 29.81R  
THERMAL CLEAR 71 47 42 NW15G23 29.76S  
 

 
 
ELSEWHERE ACROSS THE WESTERN UNITED STATES AND MEXICO  
 
 
CITY SKY/WX TMP DP RH WIND PRES REMARKS
 
DEATH VALLEY, N/A 80 36 20 S3 N/A  
DENVER, CO FOG 55 54 96 N7 30.09R VSB 3/4  
GRAND CANYON, CLEAR 46 31 55 CALM 30.10S  
HONOLULU, HI PTCLDY 79 64 61 NE6 30.04S  
KAHULUI, MAUI CLEAR 75 64 69 N8 30.04S  
LAKE TAHOE, CA CLEAR 38 35 89 CALM 30.10F  
LAS VEGAS, NV CLEAR 75 26 16 S8 29.79S  
MAMMOTH LAKES, FAIR 43 33 66 W10 30.12R  
MEXICO CITY, M CLOUDY 61 54 77 W3 30.26  
PHOENIX, AZ CLEAR 79 33 19 SE10 29.81R  
PORTLAND, OR PTCLDY 62 59 90 E9 29.91S  
RENO, NV PTCLDY 54 43 66 N5 30.05S  
SALT LAKE CITY CLOUDY 63 57 81 SE6 29.90S  
SAN DIEGO, CA CLOUDY 65 54 67 NE5 29.99F  
SAN FRANCISCO, PTCLDY 60 51 72 CALM 30.00F  
SAN JOSE, CA CLOUDY 61 52 72 S5 30.01F  
SEATTLE, WA PTCLDY 68 53 58 SE5 29.90S  
TIJUANA, MEX CLOUDY 61 54 77 CALM 30.00F  
 

 
 
STATION/POSITION TIME TEMP WIND PRES VSBY WAVE
 
AIR SEA DIR/SP/G HT/PER  
(UTC) (F) (DEG/KT/KT) (MB) (MI) (FT/S)  
POINT ARGUELLO B NOT AVBL  
WEST SANTA BARBA 0900 60 320/ 12/ 16 1015.5  
POINT CONCEPTION NOT AVBL  
EAST SANTA BARBA 0900 60 62 270/ 6/ 8 1015.4  
SANTA MONICA BAY 0900 62 66 300/ 8/ 12 1015.0  
 
CLICK HERE TO GO TO PREVIOUS BULLETINS.

The Nexlab CA Page Main Text Page